Starlink 30771

operational
NORAD ID: 58169 Int'l Des: 2023-166 Owner: SPXS Country: US Constellation: starlink
LEOCIRCULAR

关于 Starlink 30771

正在加载描述...

实时位置

正在加载3D地球...

即将过境

高度历史

Altitude vs Time

uPlot chart will show altitude changes over time

两行轨道根数

1 58169U 23166V 25304.84304787 -.00001160 00000-0 -27055-4 0 9995
2 58169 53.1599 97.9975 0000945 71.5927 288.5177 15.30183650113452
Epoch: Oct 31, 2025 • Age: 34 hours

当前状态

高度 487.3 km
速度 7.62 km/s
星下点 -36.28°S, 81.27°W
发射日期 Oct 29, 2023
运行时间 2 years
类型 internet

技术详情

分类 Payload
质量 730.00 kg
干质量 700.00 kg
总质量 730.00 kg
长度 0.30 m
直径 4.10 m
跨度 29.00 m
形状 Box + pan
制造商 SPXS
平台类型 Starlink V2M
阶段状态 In Orbit
所有者/国家 SPXS/US

大型星座

Loading constellations...